IRIDIUM 33

Satellite information

Favourite Embed

Satellite Type and Status

PAYLOADIN ORBIT

Key statistics

Satellite IRIDIUM 33 at a glance.

Uptime

10317

Days in orbit

Revolutions

≈ 14.4

Per day

Orbit

LEO

Low Earth Orbit

Inclination

86.4

Latest

Satellite identification and parameters

Extended collection of information and parameters for IRIDIUM 33.

Object identification

Identified? True

Debris? False

Object name: IRIDIUM 33

International designator: 1997-051C

Object number (NORAD): 24946

Object ID (CCSDS): 24946

Country: UNITED STATES OF AMERICA (US)

Current information (Y/N): Y

RCS size: LARGE

Orbital parameters

Period: 100.346 minutes

Inclination: 86.3869 deg

SMA: 7153.08 km

Apoapsis: 779.931 km

Periapsis: 769.958 km

RAAN: 68.4112 deg

Eccentricy: 0.00069711

Argument of periapsis: 201.9073 deg

Mean anomaly: 158.1826 deg

Mean motion: 14.35037182 rev/day

Mean motion (dot): 0.00000571 rev/day2

B* drag term: 0.00019352653 1/REarth

Two-line elements (TLE)

Creation date: Dec. 12, 2025, 10:14 a.m.

Reference frame: TEME

Reference center: EARTH

Epoch: Dec. 12, 2025, 6:54 a.m. UTC

TLE line 0: 0 IRIDIUM 33

TLE line 1: 1 24946U 97051C 25346.28813002 .00000571 00000-0 19353-3 0 9998

TLE line 2: 2 24946 86.3869 68.4112 0006971 201.9073 158.1826 14.35037182478288

Live tracking on map

Real-time ground track for satellite IRIDIUM 33.

In-orbit conjunctions

A list of the most updated potential collisions computed for object IRIDIUM 33.

Target Orbit TCA Probability of collision Miss distance Type
CZ-6A DEB LEO 2025-11-07 13:53:00 0.0007035757 179.0 (m) DEBRIS
CZ-6A DEB LEO 2025-08-28 23:19:33 0.0002541188 357.0 (m) DEBRIS
COSMOS 1371 LEO 2025-05-04 20:02:53 0.001110008 502.0 (m) PAYLOAD
DMSP 5D-2 F13 DEB SSO 2025-01-06 02:34:44 0.001245541 111.0 (m) DEBRIS
FENGYUN 1C DEB SSO 2024-12-19 08:17:09 0.0002456107 640.0 (m) DEBRIS

Associated space launch

Iridium provides global mobile telecommunications services using a constellation of 66 low earth orbit satellites in a 86.4° inclined orbit. Although 77 satellites were originally envisioned for the system and spawned the name based on the 77th element in the periodic table, the system has been scaled back. Motorola's Satellite Communications Group designed and manufactured the Iridium satellites with Lockheed Martin providing the LM-700A spacecraft buses.

IRIDIUM 33 was lifted into orbit during the mission ‘Proton-K/17S40 | Iridium 27 to 33’, on board a Proton-K/17S40 space rocket.

The launch took place on Sept. 14, 1997, 1:36 a.m. from 81/23 (81L).

For more information about the launch, click the button.

Launch to space Proton-K/17S40 | Iridium 27 to 33
Proton-K/17S40 | Iridium 27 to 33

Agency: N/A

Status: Launch Successful

Launch date: Sept. 14, 1997, 1:36 a.m. UTC

Rocket: Proton-K/17S40

Launch pad: 81/23 (81L)

Location: Baikonur Cosmodrome, Republic of Kazakhstan

...

Latest news about this satellite

There are no fresh news available about this satellite. Check back as we update our databases every day.


Newsletter sign-up

Weekly statistics, charts and insights to help you stay on top of the space industry.